Back to catalog

COSMOS 970 DEB

AliveLEO
NORAD 65008·DEBRIS·🇷🇺 Russia

Launched Dec 21, 1977 from Baikonur Cosmodrome

Loading…

Next Passes (next 24 hours)

TLE

AgingSource: Space-Track

Epoch: Sep 12, 2026, 09:14 UTC

1 65008U 77121DV  26255.38503799  .00000522  00000-0  49547-3 0  9992
2 65008  65.8160 214.8933 0113140  33.5056  46.5078 13.86526485646676

Track COSMOS 970 DEB in real time with AllMySat

Download on the App Store